Regional Weather Roundup
Issued by NWS

Home | Current Version | Previous Version | Graphics & Text | Print | Product List | Glossary On
Versions: 1 2 3 4 5 6 7 8 9 10 11 12 13 14 15 16 17 18 19 20 21 22 23 24 25 26 27 28
000
ASUS45 KBOU 311007
RWRCO

WEATHER ROUNDUP FOR COLORADO
NATIONAL WEATHER SERVICE DENVER/BOULDER CO
400 AM MDT TUE MAY 31 2016

NOTE: "FAIR" INDICATES FEW OR NO CLOUDS BELOW 12000 FEET WITH NO
SIGNIFICANT WEATHER AND/OR OBSTRUCTIONS TO VISIBILITY.

COZ001>005-013-030-031-311100-
...NORTHWEST COLORADO...

CITY           SKY/WX    TMP DP  RH WIND       PRES   REMARKS
CRAIG          CLOUDY    43  38  82 CALM      30.12S
HAYDEN         MOCLDY    45  32  61 NE3       30.13S
MEEKER         FAIR      43  35  73 E3        30.13S
MOUNT WERNER   NOT AVBL
STEAMBOAT SPGS FAIR      40  35  81 CALM      30.14S
WALDEN         NOT AVBL
$$

COZ006>008-011-311100-
...WEST CENTRAL VALLEYS...

CITY           SKY/WX    TMP DP  RH WIND       PRES   REMARKS
GRAND JUNCTION FAIR      54  35  48 SE3       30.02R
MONTROSE       FAIR      46  33  60 S8        30.09R
EAGLE          FAIR      39  34  81 SE5       30.19S
RIFLE          FAIR      40  33  76 E5        30.10R
DELTA          FAIR      49  34  56 NE6       30.05S
NUCLA          FAIR      48  32  53 SE10      30.09S
$$

COZ017>023-064>068-311100-
...SOUTHWEST COLORADO...

CITY           SKY/WX    TMP DP  RH WIND       PRES   REMARKS
DURANGO        FAIR      42  27  55 CALM      30.06R
CORTEZ         FAIR      39  30  70 NE7       30.03S
PAGOSA SPRINGS FAIR      41  28  59 CALM      30.13S
TELLURIDE      FAIR      41  27  57 SE8       30.23S
WOLF CREEK PAS CLOUDY    36  19  51 E12       30.38S
$$

COZ009-010-012-014-032>034-037-058>063-311100-
...CENTRAL COLORADO...

CITY           SKY/WX    TMP DP  RH WIND       PRES   REMARKS
ASPEN          FAIR      36  31  82 S9        30.18S
BUENA VISTA    FAIR      40  27  60 CALM      30.21R
COPPER MTN     NOT AVBL
BERTHOUD PASS  MOCLDY    30  21  69 CALM      30.38S
COTTONWOOD PAS FAIR      46  21  36 CALM      30.28R
GUNNISON       FAIR      36  28  75 N3        30.23R
KREMMLING        N/A     32  32 100 CALM      30.21S FOG
LEADVILLE      FAIR      30  24  78 NE6       30.27S WCI  24
MONARCH PASS   FAIR      34  23  64 MISG      30.45F
SALIDA         FAIR      40  31  70 W3        30.26F
SUNLIGHT       FAIR      37  30  75 NE3       30.34S
WILKERSON PASS FAIR      32  30  93 NE8       30.36S WCI  25
$$

COZ069>075-311100-
...SAN LUIS VALLEY/SANGRE DE CRISTO MOUNTAINS...

CITY           SKY/WX    TMP DP  RH WIND       PRES   REMARKS
ALAMOSA        FAIR      39  34  82 CALM      30.15R
LA VETA PASS   FAIR      39  32  75 N5        30.28S
SAGUACHE       FAIR      43  30  61 NW14      30.16S
$$

COZ035-036-038>040-311100-
...NORTHERN COLORADO FRONT RANGE...

CITY           SKY/WX    TMP DP  RH WIND       PRES   REMARKS
DENVER INTL AP CLOUDY    49  43  80 NW10      30.17R
DMNS CITY PARK   N/A     51  42  72 N10G16    30.18F
AURORA         DRIZZLE   47  45  92 NW14      30.19R
FRONT RANGE AP NOT AVBL
ERIE MUNI ARPT CLOUDY    51  44  76 N3        30.18S
BOULDER MUN AP CLOUDY    50  43  76 W3        30.18S
CENTENNIAL     CLOUDY    48  41  76 N14       30.19R
BROOMFIELD     CLOUDY    50  41  71 N7        30.20R
FORT COLLINS   MOCLDY    52  43  71 N7        30.16F
LONGMONT       CLOUDY    54  45  71 SW3       30.19S
$$

COZ041-046-047-076>085-087-088-311100-
...PIKES PEAK/PALMER DIVIDE AND SOUTHERN FOOTHILLS...

CITY           SKY/WX    TMP DP  RH WIND       PRES   REMARKS
COLO. SPRINGS  MOCLDY    51  42  71 N23G31    30.14R
A. F. ACADEMY  CLOUDY    48  45  87 N18       30.17R
SCHRIEVER AFB  NOT AVBL
ELLICOTT       NOT AVBL
FALCON         FAIR      47  41  82 N25G31    30.16R
FORT CARSON    FAIR      52  44  72 N26G39    30.11R
LIMON          CLOUDY    49  46  90 N15       30.10R
MONUMENT HILL  FOG       43  43 100 N13G21    30.22R VSB 1/4
TRINIDAD       FAIR      46  41  82 W10       30.06R
$$

COZ042>045-048>051-090-091-311100-
...NORTHEAST COLORADO...

CITY           SKY/WX    TMP DP  RH WIND       PRES   REMARKS
GREELEY ARPT   CLOUDY    52  37  58 N5        30.16S
AKRON          CLOUDY    51  48  89 N16       30.10R
BURLINGTON     FAIR      48  44  86 W7        30.05R
WRAY           FAIR      54  50  87 N15       30.03R
STERLING       MOCLDY    52  50  93 NE3       30.08S
HOLYOKE        NOT AVBL
FORT MORGAN    CLOUDY    51  46  83 N6        30.13R
$$

COZ086-089-092>099-311100-
...SOUTHEAST COLORADO...

CITY           SKY/WX    TMP DP  RH WIND       PRES   REMARKS
PUEBLO         FAIR      53  46  77 CALM      30.04R
LA JUNTA       FAIR      55  47  74 NW10      29.99S
LAMAR          FAIR      57  49  74 CALM      29.94S
SPRINGFIELD      N/A     56  54  93 SE7       29.97R
$$




USA.gov is the U.S. government's official web portal to all federal, state and local government web resources and services.